EW0395 Weather Reports


Display with metric or nautical units.
time (UTC)temp
F
wind
direction
speed
MPH
gust
MPH
rain 1hr
in
rain 24hr
in
rain mn
in
humidity
%
barometer
mb
20260905163039 69 0 0.0 0.0 0.00 0.00 0.00 73 1011.9
20260905161541 70 0 0.0 0.0 0.00 0.00 0.00 72 1011.9
20260905160108 71 0 0.0 0.0 0.00 0.00 0.00 65 1011.9
20260905154540 68 0 0.0 0.0 0.00 0.00 0.00 71 1012.1
20260905153039 69 0 0.0 0.0 0.00 0.00 0.00 73 1012.1
20260905151546 68 0 0.0 0.0 0.00 0.00 0.00 75 1012.1
20260905150040 70 0 0.0 0.0 0.00 0.00 0.00 76 1012.2
20260905144541 71 0 0.0 0.0 0.00 0.00 0.00 73 1012.2
20260905143041 68 0 0.0 0.0 0.00 0.00 0.00 80 1012.4
20260905141543 68 0 0.0 0.0 0.00 0.00 0.00 79 1012.3
20260905140039 67 0 0.0 0.0 0.00 0.00 0.00 79 1012.2
20260905134537 64 0 0.0 0.0 0.00 0.00 0.00 83 1012.0
20260905133042 64 0 0.0 0.0 0.00 0.00 0.00 85 1012.0
20260905131536 63 0 0.0 0.0 0.00 0.00 0.00 88 1012.0
20260905130037 63 0 0.0 0.0 0.00 0.00 0.00 87 1011.8
20260905124541 63 0 0.0 0.0 0.00 0.00 0.00 90 1011.9
20260905123038 60 0 0.0 0.0 0.00 0.00 0.00 97 1011.8
20260905121538 59 0 0.0 0.0 0.00 0.00 0.00 98 1011.6
20260905120038 58 0 0.0 0.0 0.00 0.00 0.00 99 1011.7
20260905114537 57 0 0.0 0.0 0.00 0.00 0.00 99 1011.7
20260905113037 56 0 0.0 0.0 0.00 0.00 0.00 99 1011.6
20260905111536 56 0 0.0 0.0 0.00 0.00 0.00 99 1011.5
20260905110040 55 0 0.0 0.0 0.00 0.00 0.00 99 1011.3
20260905104540 55 0 0.0 0.0 0.00 0.00 0.00 98 1011.2
20260905103044 55 0 0.0 0.0 0.00 0.00 0.00 99 1011.2
20260905101541 54 0 0.0 0.0 0.00 0.00 0.00 99 1011.2
20260905100036 54 0 0.0 0.0 0.00 0.00 0.00 99 1011.1
20260905094538 53 0 0.0 0.0 0.00 0.00 0.00 99 1011.1
20260905093039 53 0 0.0 0.0 0.00 0.00 0.00 98 1011.0
20260905091610 53 0 0.0 0.0 0.00 0.00 0.00 98 1010.9
20260905090035 53 0 0.0 0.0 0.00 0.00 0.00 98 1010.9
20260905084541 53 0 0.0 0.0 0.00 0.00 0.00 98 1010.9
20260905083036 53 0 0.0 0.0 0.00 0.00 0.00 98 1010.8
20260905081537 53 0 0.0 0.0 0.00 0.00 0.00 98 1010.8
20260905080047 54 0 0.0 0.0 0.00 0.00 0.00 98 1010.8
20260905074542 53 0 0.0 0.0 0.00 0.00 0.00 97 1010.8
20260905073039 54 0 0.0 0.0 0.00 0.00 0.00 97 1010.9
20260905071536 54 0 0.0 0.0 0.00 0.00 0.00 97 1010.9
20260905070041 54 0 0.0 0.0 0.00 0.00 0.00 97 1011.2
20260905064535 55 0 0.0 0.0 0.00 0.00 0.00 97 1011.3
20260905063038 55 0 0.0 0.0 0.00 0.00 0.00 97 1011.4
20260905061557 56 0 0.0 0.0 0.00 0.00 0.00 97 1011.6
20260905060041 56 0 0.0 0.0 0.00 0.00 0.00 97 1011.6
20260905054538 56 0 0.0 0.0 0.00 0.00 0.00 97 1011.6
20260905053036 56 0 0.0 0.0 0.00 0.00 0.00 97 1011.5
20260905051540 56 0 0.0 0.0 0.00 0.00 0.00 97 1011.6
20260905050041 56 0 0.0 0.0 0.00 0.00 0.00 96 1011.8
20260905044538 56 0 0.0 0.0 0.00 0.00 0.00 96 1011.7
20260905043040 56 0 0.0 0.0 0.00 0.00 0.00 95 1011.7
20260905041540 57 0 0.0 0.0 0.00 0.00 0.00 94 1011.8
20260905040039 58 0 0.0 0.0 0.00 0.00 0.00 94 1011.6
20260905034552 58 0 0.0 0.0 0.00 0.00 0.00 93 1011.7
20260905033036 58 0 0.0 0.0 0.00 0.00 0.00 94 1011.7
20260905031541 59 0 0.0 0.0 0.00 0.00 0.00 93 1011.5
20260905030041 59 0 0.0 0.0 0.00 0.00 0.00 92 1011.5
20260905024536 60 0 0.0 0.0 0.00 0.00 0.00 91 1011.6
20260905023041 60 0 0.0 0.0 0.00 0.00 0.00 92 1011.9
20260905021546 60 0 0.0 0.0 0.00 0.00 0.00 92 1011.9
20260905020042 59 0 0.0 0.0 0.00 0.00 0.00 93 1011.9
20260905014539 59 0 0.0 0.0 0.00 0.00 0.00 93 1012.0
20260905013041 59 0 0.0 0.0 0.00 0.00 0.00 93 1012.3
20260905011543 59 0 0.0 0.0 0.00 0.00 0.00 92 1012.1
20260905010038 60 0 0.0 0.0 0.00 0.00 0.00 91 1012.0
20260905004546 60 0 0.0 0.0 0.00 0.00 0.00 90 1012.1
20260905003041 61 0 0.0 0.0 0.00 0.00 0.00 89 1012.2
20260905001552 62 0 0.0 0.0 0.00 0.00 0.00 87 1012.0
20260905000038 63 0 0.0 0.0 0.00 0.00 0.00 85 1011.9
20260904234540 63 0 0.0 0.0 0.00 0.00 0.00 83 1011.7
20260904233044 64 0 0.0 0.0 0.00 0.00 0.00 81 1011.7
20260904231551 65 0 0.0 0.0 0.00 0.00 0.00 80 1011.6
20260904230043 66 0 0.0 0.0 0.00 0.00 0.00 80 1011.7
20260904224547 67 0 0.0 0.0 0.00 0.00 0.00 77 1011.6
20260904223055 68 0 0.0 0.0 0.00 0.00 0.00 76 1011.5
20260904221542 69 0 0.0 0.0 0.00 0.00 0.00 75 1011.5
20260904220040 69 0 0.0 0.0 0.00 0.00 0.00 73 1011.5
20260904214541 71 0 0.0 0.0 0.00 0.00 0.00 75 1011.4
20260904213042 71 0 0.0 0.0 0.00 0.00 0.00 69 1011.5
20260904211541 71 0 0.0 0.0 0.00 0.00 0.00 72 1011.5
20260904210046 71 0 0.0 0.0 0.00 0.00 0.00 70 1011.3
20260904204543 71 0 0.0 0.0 0.00 0.00 0.00 69 1011.2
20260904203040 71 0 0.0 0.0 0.00 0.00 0.00 72 1011.2
20260904201536 72 0 0.0 0.0 0.00 0.00 0.00 68 1011.3
20260904200041 73 0 0.0 0.0 0.00 0.00 0.00 66 1011.2
20260904194537 73 0 0.0 0.0 0.00 0.00 0.00 67 1011.3
20260904193035 74 0 0.0 0.0 0.00 0.00 0.00 67 1011.2
20260904191550 75 0 0.0 0.0 0.00 0.00 0.00 62 1011.4
20260904190041 74 0 0.0 0.0 0.00 0.00 0.00 62 1011.1
20260904184538 75 0 0.0 0.0 0.00 0.00 0.00 61 1011.3
20260904183050 75 0 0.0 0.0 0.00 0.00 0.00 67 1011.3
20260904181542 76 0 0.0 0.0 0.00 0.00 0.00 61 1011.6
20260904180039 75 0 0.0 0.0 0.00 0.00 0.00 66 1011.6
20260904174542 77 0 0.0 0.0 0.00 0.00 0.00 60 1011.3
20260904173050 77 0 1.0 6.0 0.00 0.00 0.00 67 1011.4
20260904171538 74 275 1.0 4.0 0.00 0.00 0.00 67 1011.7
20260904170042 75 174 0.0 3.0 0.00 0.00 0.00 66 1011.6
20260904164537 75 0 0.0 3.0 0.00 0.00 0.00 64 1011.8